Regional Weather Roundup
Issued by NWS Burlington, VT

Home | Current Version | Previous Version | Text Only | Print | Product List | Glossary On
Versions: 1 2 3 4 5 6 7 8 9 10 11 12 13 14 15 16 17 18 19 20 21 22 23 24 25 26 27 28 29 30 31 32 33 34 35 36 37 38 39 40 41 42 43 44 45 46 47 48 49 50
000
ASUS41 KBTV 291230
RWRBTV
VERMONT REGIONAL WEATHER ROUNDUP
NATIONAL WEATHER SERVICE BURLINGTON VT
800 AM EDT TUE JUL 29 2014

NOTE: "FAIR" INDICATES FEW OR NO CLOUDS BELOW 12,000 FEET WITH NO
SIGNIFICANT WEATHER AND/OR OBSTRUCTIONS TO VISIBILITY.

* THESE REPORTS ARE NOT UNDER NWS QUALITY CONTROL AND/OR DO NOT
  REPORT WEATHER SUCH AS PRECIPITATION AND FOG.

VTZ001>019-291300-
_____VERMONT_____


CITY           SKY/WX    TMP DP  RH WIND       PRES   REMARKS
BURLINGTON     MOSUNNY   61  52  72 W5        29.78R
6HR MIN TEMP:  57; 6HR MAX TEMP:  61;

MONTPELIER     SUNNY     57  51  80 NW8       29.80R
6HR MIN TEMP:  55; 6HR MAX TEMP:  57;

MORRISVILLE    PTSUNNY   60  52  74 N5        29.77R
6HR MIN TEMP:  55; 6HR MAX TEMP:  60;

ST. JOHNSBURY*   N/A     60  50  69 MISG      29.74R
6HR MIN TEMP:  58; 6HR MAX TEMP:  61;

LYNDONVILLE*     N/A    N/A N/A N/A MISG        N/A
MIDDLEBURY*    FAIR      59  59 100 CALM      29.78S
6HR MIN TEMP:  55; 6HR MAX TEMP:  59;

RUTLAND*       PTSUNNY   59  54  82 W3        29.79R
6HR MIN TEMP:  55; 6HR MAX TEMP:  57; 6HR PCP:  0.01;

SPRINGFIELD    PTSUNNY   61  53  75 CALM      29.78R
6HR MIN TEMP:  58; 6HR MAX TEMP:  62;

HIGHGATE*      FAIR      58  52  80 W6        29.77R
6HR MIN TEMP:  54; 6HR MAX TEMP:  58;

NEWPORT*       FAIR     N/A N/A N/A NW5       29.77R
BENNINGTON     MOSUNNY   59  55  87 W7        29.81R
6HR MIN TEMP:  57; 6HR MAX TEMP:  60; 6HR PCP:  0.04;

SUTTON*          N/A     57 N/A N/A MISG        N/A
MT. MANSFIELD*   N/A     43 N/A N/A NW29        N/A

_____LAKE CHAMPLAIN_____


CITY           SKY/WX    TMP DP  RH WIND       PRES   REMARKS
COLCHESTER RF*   N/A     59  52  77 W12         N/A
DIAMOND ISL*     N/A     61  52  72 W3          N/A

$$

NYZ007-026>031-035-052-083-291300-
_____NORTHERN NEW YORK_____


CITY           SKY/WX    TMP DP  RH WIND       PRES   REMARKS
PLATTSBURGH    MOSUNNY   59  52  77 VRB7      29.77R
6HR MIN TEMP:  54; 6HR MAX TEMP:  59;

SARANAC LAKE   CLOUDY    50  49  96 W5        29.81R
6HR MIN TEMP:  45; 6HR MAX TEMP:  53;

MASSENA        SUNNY     57  52  83 W7        29.82R
6HR MIN TEMP:  51; 6HR MAX TEMP:  58;

OGDENSBURG*    SUNNY     57  54  88 NW5       29.84R
POTSDAM*       MOSUNNY   55  55 100 W6        29.83R
WATERTOWN      SUNNY     60  51  72 CALM      29.86R
6HR MIN TEMP:  51; 6HR MAX TEMP:  60;

FT DRUM        SUNNY     56  55  96 W5        29.85R
6HR MIN TEMP:  50; 6HR MAX TEMP:  56;

ALBANY         MOSUNNY   61  53  75 NW7       29.82R
6HR MIN TEMP:  58; 6HR MAX TEMP:  61;

GLENS FALLS    SUNNY     62  52  69 NW8       29.79R
6HR MIN TEMP:  56; 6HR MAX TEMP:  62; 6HR PCP: TRACE;


$$
NHZ002-005-011-291300-
_____NEW HAMPSHIRE_____


CITY           SKY/WX    TMP DP  RH WIND       PRES   REMARKS
LEBANON        MOSUNNY   62  54  74 CALM      29.76R
6HR MIN TEMP:  59; 6HR MAX TEMP:  63;

KEENE          PTSUNNY   63  48  59 NW6       29.79R
6HR MIN TEMP:  57; 6HR MAX TEMP:  63;

MT WASHINGTON  FOG       39  39 100 NW36        N/A  VSB 1/16
6HR MIN TEMP:  39; 6HR MAX TEMP:  44; 6HR PCP:  0.15;

PLYMOUTH       FAIR      61  52  73 NW8G16    29.75R
6HR MIN TEMP:  59; 6HR MAX TEMP:  62;

WHITEFIELD     CLOUDY    57  53  86 SW6       29.75R
6HR MIN TEMP:  56; 6HR MAX TEMP:  60;


$$

_____REGIONAL QUEBEC LOCATIONS_____


CITY           SKY/WX    TMP DP  RH WIND       PRES   REMARKS
MONTREAL       MOSUNNY   57  50  77 W12       29.76R
QUEBEC CITY    PTSUNNY   59  55  88 SW12      29.63R
SHERBROOKE     CLOUDY    55  54  94 W9        29.72R

_____REGIONAL ONTARIO LOCATIONS_____


CITY           SKY/WX    TMP DP  RH WIND       PRES   REMARKS
OTTAWA         MOSUNNY   57  52  82 NW8       29.83R

______KEY______
VSB  - VISIBILITY IN MILES
WCI  - WIND CHILL INDEX
HX   - HEAT INDEX
$$



USA.gov is the U.S. government's official web portal to all federal, state and local government web resources and services.